Hourly Data Report for August 20, 2020

SVARTEVAEG
NUNAVUT
Current Station Operator: ECCC - MSC

81°09'39.000" N
91°48'59.060" W
72.00 m
2403833
71872
NSG

Download Data

Hourly Data (August 2020)
Hourly Data Report for August 20, 2020
TIME Temp Definition
°C
Dew Point Definition
°C
Rel Hum Definition
%
Wind Dir Definition
10's deg

Wind Spd Definition
km/h
Visibility Definition
km
Stn Press Definition
kPa
Hmdx Definition


Wind Chill Definition


Weather Definition


00:00 6.2 3.5 83 18 9   100.16     LegendNANA
01:00 4.2 2.4 88 2 3   100.17     LegendNANA
02:00 6.3 3.6 83 21 4   100.17     LegendNANA
03:00 6.2 3.6 83 14 2   100.19     LegendNANA
04:00 6.0 3.6 85 18 5   100.19     LegendNANA
05:00 5.6 3.4 86 16 3   100.20     LegendNANA
06:00 5.8 4.1 88 15 6   100.20     LegendNANA
07:00 5.3 3.7 89 0 1   100.20     LegendNANA
08:00 6.0 4.3 89 0 1   100.18     LegendNANA
09:00 5.9 4.1 88 12 3   100.16     LegendNANA
10:00 6.8 4.2 84 16 3   100.14     LegendNANA
11:00 7.1 3.8 80 16 8   100.11     LegendNANA
12:00 7.9 3.9 76 21 4   100.06     LegendNANA
13:00 7.4 3.8 78 13 5   100.05     LegendNANA
14:00 8.1 4.8 79 0 1   100.02     LegendNANA
15:00 8.3 4.6 77 23 4   99.97     LegendNANA
16:00 4.5 3.3 92 34 13   99.93     LegendNANA
17:00 4.1 2.8 91 35 15   99.89     LegendNANA
18:00 5.8 5.1 95 32 8   99.87     LegendNANA
19:00 6.2 5.3 94 29 10   99.85     LegendNANA
20:00 2.3 1.9 97 36 8   99.84     LegendNANA
21:00 1.2 0.8 97 36 15   99.87     LegendNANA
22:00 1.2 1.0 98 33 15   99.84     LegendNANA
23:00 0.5 0.4 99 34 9   99.89     LegendNANA

Notes on Data Quality.

Legend

  • E = Estimated
  • M = Missing
  • NA = Not Available*
  • [empty] = Indicates an unobserved value
Date modified: